Wind_Speed
10 10 10 10 10 10 10 10 10 10 10 10 10 11 12 11 11 11 10 9 9 9 9 8 7 7 7 7 7 8 7 7 6 5 4 3 2 1 2 1 1 1 1 1
11 11 11 11 11 10 10 10 10 10 10 10 10 10 11 11 11 11 10 9 9 10 10 9 8 8 8 8 8 8 8 7 6 5 5 4 3 2 2 2 2 2 2 2
13 12 12 12 11 11 10 10 10 10 11 11 10 10 11 11 11 10 10 10 10 10 10 10 9 8 8 8 8 8 8 8 7 6 5 4 3 3 2 2 2 2 2 2
14 14 13 12 12 11 11 11 10 10 10 10 10 10 11 11 10 10 9 10 10 10 10 10 9 9 9 9 8 8 8 8 7 6 5 4 4 3 2 2 3 2 2 2
15 15 14 13 13 13 12 11 11 11 11 11 10 10 10 10 9 9 9 10 10 10 10 10 10 10 9 9 9 9 9 8 8 7 6 5 4 4 3 2 3 2 2 3
17 16 15 14 14 13 13 12 11 11 11 11 11 11 10 10 10 9 9 10 10 10 10 10 10 10 10 10 10 10 10 9 8 7 7 6 5 5 4 3 3 3 3 4
18 17 16 16 15 14 13 12 12 12 12 12 12 11 11 11 11 10 9 10 10 11 10 10 10 10 11 11 10 10 10 10 9 9 8 8 7 6 5 4 3 4 4 4
19 19 17 17 16 15 14 14 13 13 13 12 12 12 12 11 11 10 10 10 10 10 11 11 11 12 12 12 12 11 11 11 10 9 9 9 8 8 7 6 5 5 5 4
20 20 19 17 17 17 16 15 15 15 14 13 13 12 12 12 12 11 10 10 11 11 11 11 11 12 12 12 12 12 12 12 11 10 10 10 10 9 7 7 5 5 5 5
22 22 20 19 19 18 18 17 16 15 15 14 13 13 13 13 12 12 12 11 11 11 10 11 11 12 12 13 13 13 12 12 12 11 11 11 11 10 9 7 6 6 6 5
23 23 21 20 20 19 19 18 17 17 16 15 14 14 13 13 13 13 12 12 11 11 11 11 12 12 13 13 13 14 13 13 13 12 12 12 11 11 10 9 8 7 7 6
24 23 22 22 21 21 20 19 19 18 17 17 16 16 14 14 14 13 13 13 12 11 11 12 13 13 13 14 14 14 14 13 13 13 12 12 12 12 11 10 9 9 8 7
25 25 24 24 22 22 21 20 20 19 19 18 18 17 16 15 15 14 13 13 13 13 13 12 13 14 14 14 14 14 14 14 14 13 12 12 12 12 12 12 10 10 9 8
26 26 25 24 23 21 21 21 21 21 20 19 19 18 16 16 15 14 15 15 14 14 14 14 13 14 15 15 15 15 14 15 15 14 14 14 13 13 13 12 12 11 10 10
28 27 26 26 24 23 23 22 22 22 21 20 20 19 17 17 16 15 15 15 15 14 14 14 14 14 15 15 15 15 15 15 15 15 15 15 15 14 14 13 13 12 11 10
29 28 27 26 25 24 24 23 23 22 21 21 21 19 18 18 17 17 16 16 16 15 15 15 14 14 14 14 14 14 14 15 15 15 15 15 16 15 15 15 14 13 12 12
30 29 28 27 27 26 25 23 23 22 21 21 21 19 19 19 19 18 17 17 16 16 16 15 15 15 15 15 15 14 14 14 14 15 15 15 16 16 16 16 15 14 13 13
31 30 30 29 29 29 25 23 23 23 21 21 21 20 20 20 20 19 18 17 17 16 16 16 17 16 16 16 15 15 14 14 14 14 15 15 16 16 17 17 16 15 14 14
32 31 31 30 30 29 26 24 23 23 22 21 20 20 20 20 20 19 19 18 17 17 18 17 17 17 17 16 16 15 14 14 15 15 15 15 16 16 16 16 17 16 15 15
32 32 32 32 31 30 26 25 24 23 22 21 20 20 19 19 19 18 19 19 18 17 18 18 17 17 17 16 16 16 15 15 15 15 16 16 16 17 17 17 17 17 17 16
33 33 33 32 31 29 27 25 25 24 21 21 20 20 19 19 18 18 19 19 18 18 18 17 17 17 16 16 16 16 16 16 16 16 16 17 17 18 19 18 17 18 18 17
33 34 32 32 31 29 26 25 24 24 23 22 21 20 20 20 19 19 19 19 19 19 18 18 17 17 17 17 17 16 16 16 16 16 16 16 16 17 18 18 18 17 17 17
33 33 31 30 30 28 27 25 25 24 24 23 22 21 21 20 19 19 19 19 19 19 19 18 18 18 18 18 17 17 16 16 16 16 16 16 16 18 18 18 19 18 18 18
32 32 31 30 30 29 28 27 25 24 24 23 22 21 21 20 20 20 20 20 20 20 20 19 19 19 19 19 18 17 16 16 16 16 16 15 16 16 17 19 19 19 20 19
31 31 31 30 29 29 28 27 25 24 24 24 23 22 22 21 21 21 21 20 20 21 20 20 20 20 20 20 19 18 18 17 17 16 16 16 16 16 17 18 18 18 19 19
30 31 31 30 28 29 28 27 26 25 25 24 25 24 23 23 22 22 21 21 21 21 21 21 20 20 20 20 20 19 19 19 18 17 17 17 17 17 18 18 18 19 19 20
Wind_Direction
262 267 272 276 279 282 284 285 286 285 283 280 279 277 276 272 272 271 268 264 255 250 255 259 260 257 252 251 241 229 224 227 228 226 222 233 239 219 206 181 136 149 123 91
261 265 270 275 280 282 284 284 285 286 283 280 280 277 277 273 273 269 264 258 252 253 254 255 258 256 251 245 234 229 226 225 226 228 228 229 233 232 217 162 150 137 121 106
260 263 266 272 277 278 283 283 282 283 283 282 279 274 274 275 275 269 261 256 253 253 253 254 256 249 245 242 236 233 226 223 224 225 225 227 229 217 201 182 174 149 134 117
257 259 263 268 273 273 276 278 279 282 283 281 279 275 274 270 268 265 261 258 253 254 254 254 250 244 243 241 238 231 225 222 220 222 225 227 211 205 204 203 192 170 150 145
257 258 260 264 268 269 271 275 278 280 281 282 277 273 271 268 263 261 262 260 254 252 253 253 248 242 240 237 234 230 223 222 220 223 224 222 217 214 206 197 184 174 163 159
254 256 258 261 263 265 268 272 276 278 280 280 276 271 267 263 262 259 257 256 252 249 251 250 247 240 236 233 231 226 222 221 224 225 226 225 220 211 206 193 180 172 161 158
254 256 258 259 260 262 265 268 271 273 276 276 272 268 265 261 258 256 255 253 253 250 248 249 244 237 233 230 229 225 223 223 226 230 230 223 218 212 206 194 185 171 159 156
254 256 258 258 258 259 260 262 265 269 271 273 270 268 266 262 261 255 254 256 256 253 248 246 242 237 234 232 228 225 225 225 226 230 229 223 219 214 206 198 192 180 171 165
252 255 256 255 256 256 257 258 261 265 267 267 267 266 264 261 262 256 254 257 255 253 248 243 241 239 233 228 225 226 227 227 226 228 229 223 218 215 210 208 207 198 189 182
249 252 253 252 253 254 254 255 258 261 262 263 265 262 259 258 259 256 254 255 254 252 246 240 240 237 231 227 228 228 229 227 226 228 230 224 220 218 216 215 217 210 205 202
247 249 250 250 249 252 253 253 255 257 259 259 262 261 258 258 259 255 252 252 252 251 246 240 238 237 232 228 227 226 227 228 227 228 229 225 224 224 223 221 219 217 214 213
244 247 248 249 248 248 251 251 253 254 256 256 257 258 257 257 257 253 249 247 247 246 245 243 237 236 231 227 228 229 229 227 227 228 228 225 225 226 226 224 225 226 226 225
242 243 245 247 247 247 248 248 249 251 252 253 253 257 258 257 255 252 247 244 244 245 244 241 238 235 230 228 229 232 232 228 228 229 230 225 225 226 226 225 227 228 233 234
240 242 243 246 248 249 248 247 247 248 250 250 251 254 257 255 252 250 248 246 246 246 242 238 238 234 232 231 230 232 232 227 227 229 230 226 227 226 224 225 229 232 236 234
239 240 241 243 245 246 246 247 247 248 249 250 250 251 252 251 249 248 248 246 245 244 241 238 236 235 231 231 231 234 231 227 228 230 229 229 228 227 225 228 230 233 234 235
238 239 240 243 244 244 245 246 248 249 248 250 250 250 250 248 246 246 246 245 243 244 242 236 235 232 227 228 232 234 231 229 230 230 230 231 231 229 229 231 233 235 236 239
238 239 240 242 243 244 244 245 247 249 248 248 249 248 247 246 245 245 246 244 242 241 238 233 232 230 227 229 232 233 233 232 233 232 232 233 233 232 231 232 236 236 239 244
236 237 239 241 243 245 244 244 245 246 247 247 247 247 245 245 245 245 244 242 240 239 236 231 231 231 230 231 232 234 237 237 236 235 233 234 233 234 236 237 237 239 242 246
234 235 238 240 243 246 244 243 244 245 245 245 246 246 246 244 243 243 242 240 240 240 236 233 231 230 232 233 232 235 239 238 235 236 235 235 232 232 235 237 240 242 245 248
232 234 237 239 242 244 243 241 243 245 243 243 243 244 244 243 240 240 240 240 239 238 235 232 230 229 231 233 233 236 238 237 237 239 238 238 237 236 237 239 242 244 245 247
232 234 236 237 241 243 242 241 242 242 241 240 241 242 242 241 238 238 239 238 237 236 233 231 229 228 230 232 235 238 238 238 240 244 243 242 244 242 241 242 243 244 246 248
234 235 236 238 240 241 240 239 241 241 240 239 240 240 240 239 237 238 238 239 238 235 233 232 231 232 233 234 235 238 241 242 244 245 244 246 247 244 242 242 242 244 247 250
233 235 238 239 240 240 238 237 240 240 239 239 239 238 239 238 236 238 239 239 238 235 232 232 234 236 234 233 236 239 241 243 244 244 245 246 248 247 246 246 246 248 251 253
232 232 234 236 237 237 235 235 237 237 237 237 237 236 234 235 236 238 238 238 238 236 234 234 236 236 235 236 237 238 240 242 245 246 247 248 249 250 249 248 248 250 252 253
232 232 233 233 233 233 231 232 233 234 234 234 234 234 233 234 235 236 237 238 239 237 233 233 236 237 237 236 237 240 240 243 245 245 247 250 251 251 251 251 253 255 253 252
230 230 231 231 230 231 231 232 232 233 232 233 232 232 233 234 235 234 235 238 238 238 234 233 235 237 236 235 236 238 241 243 244 244 247 250 252 253 253 254 255 256 257 256
Height
5873 5874 5874 5874 5874 5873 5873 5873 5872 5872 5871 5871 5871 5870 5870 5870 5870 5870 5870 5870 5870 5870 5871 5871 5871 5871 5871 5872 5872 5872 5873 5873 5873 5873 5874 5873 5873 5873 5872 5872 5871 5871 5871 5870
5871 5871 5871 5871 5871 5870 5870 5870 5870 5869 5869 5869 5868 5868 5868 5868 5868 5867 5867 5868 5868 5868 5869 5869 5870 5870 5870 5870 5871 5871 5872 5872 5873 5873 5873 5873 5873 5873 5872 5872 5871 5871 5871 5870
5867 5868 5868 5868 5868 5868 5867 5867 5867 5867 5867 5866 5867 5867 5866 5866 5865 5865 5865 5866 5866 5867 5867 5867 5868 5868 5869 5869 5870 5870 5870 5871 5872 5872 5872 5873 5872 5872 5872 5872 5872 5872 5871 5871
5863 5864 5865 5865 5865 5865 5865 5865 5865 5865 5864 5864 5865 5865 5864 5863 5863 5863 5863 5863 5864 5865 5865 5865 5866 5866 5867 5868 5868 5869 5869 5870 5871 5871 5872 5872 5872 5872 5872 5872 5872 5872 5871 5871
5859 5860 5861 5862 5862 5862 5862 5862 5862 5862 5862 5862 5862 5862 5863 5861 5861 5861 5861 5861 5862 5862 5863 5863 5864 5865 5866 5866 5867 5868 5868 5869 5870 5871 5871 5871 5872 5872 5872 5872 5872 5872 5872 5871
5855 5856 5857 5858 5858 5859 5859 5859 5859 5859 5860 5860 5860 5860 5860 5860 5859 5859 5859 5859 5860 5860 5860 5861 5862 5863 5864 5865 5866 5867 5867 5868 5869 5870 5870 5871 5871 5871 5872 5872 5872 5872 5872 5872
5850 5852 5853 5854 5855 5855 5856 5857 5857 5857 5857 5858 5857 5857 5858 5857 5857 5857 5857 5857 5857 5858 5858 5859 5859 5860 5862 5863 5864 5865 5866 5867 5868 5869 5869 5870 5870 5871 5871 5872 5872 5872 5872 5872
5846 5847 5849 5850 5851 5852 5852 5854 5855 5855 5855 5855 5854 5854 5855 5854 5854 5854 5854 5855 5855 5855 5856 5856 5857 5858 5859 5860 5862 5863 5864 5865 5866 5867 5868 5869 5869 5870 5871 5871 5872 5872 5872 5873
5841 5843 5844 5845 5847 5848 5849 5849 5850 5851 5851 5851 5851 5852 5852 5851 5851 5851 5852 5852 5852 5852 5853 5854 5854 5856 5857 5858 5860 5861 5862 5863 5865 5865 5866 5867 5868 5869 5870 5871 5871 5872 5872 5872
5835 5837 5839 5840 5842 5843 5845 5845 5846 5847 5847 5848 5848 5848 5849 5848 5848 5849 5849 5849 5849 5850 5850 5851 5852 5853 5855 5856 5857 5859 5860 5861 5863 5864 5865 5866 5867 5868 5869 5870 5870 5871 5872 5872
5829 5832 5834 5835 5836 5838 5840 5841 5842 5843 5843 5844 5845 5847 5845 5845 5845 5846 5846 5846 5846 5847 5848 5848 5850 5851 5852 5854 5855 5856 5858 5859 5860 5861 5863 5864 5865 5867 5868 5869 5870 5870 5871 5872
5823 5826 5827 5830 5831 5832 5834 5835 5837 5839 5839 5840 5841 5844 5841 5841 5841 5842 5842 5843 5844 5844 5845 5846 5847 5848 5850 5851 5853 5854 5855 5857 5858 5859 5861 5862 5864 5865 5866 5867 5868 5869 5870 5871
5816 5819 5821 5823 5826 5827 5828 5830 5831 5833 5834 5835 5836 5840 5837 5838 5838 5838 5839 5840 5840 5841 5842 5843 5844 5845 5847 5848 5850 5851 5853 5854 5856 5857 5858 5860 5861 5863 5864 5865 5867 5868 5869 5869
5809 5812 5816 5819 5820 5822 5823 5824 5826 5827 5828 5830 5832 5833 5833 5833 5834 5835 5835 5836 5837 5838 5839 5840 5841 5842 5844 5845 5847 5848 5850 5851 5853 5854 5856 5858 5859 5860 5862 5863 5865 5866 5867 5868
5801 5805 5808 5810 5813 5815 5817 5819 5820 5821 5823 5825 5827 5827 5828 5829 5830 5831 5832 5832 5833 5834 5836 5837 5838 5839 5841 5842 5844 5845 5847 5848 5850 5851 5853 5855 5857 5858 5860 5861 5863 5864 5865 5866
5794 5798 5801 5804 5806 5808 5810 5813 5814 5816 5818 5819 5821 5823 5823 5824 5825 5827 5828 5828 5829 5831 5832 5833 5835 5836 5838 5840 5841 5842 5844 5845 5847 5849 5850 5852 5854 5855 5857 5858 5860 5861 5862 5863
5787 5791 5794 5797 5799 5801 5804 5808 5809 5810 5812 5814 5815 5818 5818 5819 5821 5822 5823 5824 5826 5827 5828 5830 5831 5833 5835 5837 5838 5840 5841 5842 5844 5846 5847 5849 5850 5852 5854 5855 5857 5858 5859 5861
5780 5783 5787 5790 5793 5794 5801 5801 5803 5805 5806 5808 5810 5811 5813 5814 5816 5817 5819 5820 5822 5823 5825 5826 5828 5830 5832 5833 5835 5837 5838 5839 5841 5842 5844 5845 5847 5848 5850 5852 5853 5855 5856 5857
5772 5776 5779 5782 5785 5788 5793 5795 5797 5799 5801 5803 5804 5806 5807 5809 5811 5812 5814 5816 5817 5819 5820 5822 5824 5826 5828 5830 5832 5834 5835 5836 5838 5839 5840 5842 5843 5845 5847 5848 5849 5851 5852 5853
5764 5768 5772 5775 5778 5782 5787 5789 5790 5793 5796 5798 5799 5801 5802 5804 5806 5809 5810 5811 5813 5814 5816 5818 5820 5822 5824 5826 5828 5830 5831 5833 5834 5835 5837 5838 5840 5841 5843 5844 5845 5847 5848 5849
5756 5760 5763 5767 5770 5775 5780 5782 5784 5788 5792 5792 5793 5795 5797 5799 5802 5804 5805 5806 5808 5810 5812 5814 5816 5819 5821 5823 5825 5826 5828 5829 5830 5832 5833 5834 5836 5837 5839 5840 5841 5843 5844 5845
5749 5753 5756 5760 5763 5770 5772 5775 5778 5781 5783 5785 5787 5790 5792 5794 5796 5798 5800 5802 5804 5806 5808 5810 5812 5815 5817 5819 5821 5822 5824 5825 5826 5828 5829 5830 5831 5833 5834 5836 5837 5838 5839 5840
5742 5747 5751 5755 5760 5762 5765 5768 5771 5774 5776 5779 5782 5784 5786 5788 5791 5793 5795 5797 5799 5801 5804 5806 5808 5810 5812 5814 5816 5818 5819 5821 5822 5823 5825 5826 5827 5829 5830 5831 5832 5834 5835 5836
5734 5738 5742 5746 5750 5753 5757 5760 5764 5767 5770 5773 5776 5778 5781 5783 5785 5788 5790 5792 5794 5797 5799 5801 5803 5806 5808 5810 5812 5813 5815 5817 5818 5819 5820 5822 5823 5824 5825 5827 5828 5829 5830 5831
5727 5731 5734 5738 5742 5745 5749 5753 5757 5760 5763 5766 5770 5772 5775 5777 5780 5782 5784 5787 5789 5791 5794 5796 5799 5801 5803 5805 5807 5809 5810 5812 5814 5815 5816 5817 5819 5820 5821 5822 5823 5824 5825 5826
5719 5724 5728 5732 5735 5739 5743 5746 5750 5753 5756 5759 5763 5766 5768 5771 5774 5776 5779 5781 5784 5786 5788 5791 5793 5795 5797 5800 5802 5804 5806 5807 5809 5810 5811 5813 5814 5815 5816 5817 5818 5819 5820 5821